Preview of NWS' New Version of Forecast
This preview is not operational and should not be used for support decisions.
Latest weather observations around

Las Vegas, North Las Vegas Airport (KVGT)

Using English Units (Switch to International System of Units)
Date/ Time (PDT) Wind (mph) Vis. (mi) Weather Sky Cond. Temp (°F) Rel. Humidity Wind Chill (°F) Heat Index (°F) Pressure Precip. (in)
Air Dwpt 6 hour Altimeter (inHg) Sea level (inHg) 1 hr 3 hr 6 hr
Max Min
Jun 20 01:53   10 Clear CLR 89 34     14%   85 29.74 29.68      
Jun 20 00:53 S 10 10 Clear CLR 90 30     12%   86 29.75        
Jun 19 23:53 S 14 10 Clear CLR 92 30     11%   87 29.75        
Jun 19 22:53 S 11 10 Clear CLR 93 32     12%   88 29.76        
Jun 19 21:53 SSW 10 10 Clear CLR 95 36     13%   90 29.75        
Jun 19 20:53 WSW 6 10 Clear CLR 98 36     12%   93 29.73 29.69      
Jun 19 19:53 W 13 10 Clear CLR 100 34     10%   94 29.72 29.68      
Jun 19 18:53 W 11 10 Clear CLR 102 35     10%   96 29.72 29.68      
Jun 19 17:53 SW 11 10 Clear CLR 103 36     10%   97 29.73 29.68      
Jun 19 16:53 3 10 Clear CLR 103 37     10%   97 29.74        
Jun 19 15:53   10 Clear CLR 104 37     10%   98 29.77 29.72      
Jun 19 14:53 SSE 14 10 Clear CLR 103 36     10%   97 29.79        
Jun 19 13:53 SSE 15 10 Clear CLR 103 35     10%   97 29.82        
Jun 19 12:53 Calm 10 Clear CLR 99 36     11%   94 29.85        
Jun 19 11:53 5 10 Clear CLR 97 36     12%   92 29.88        
Jun 19 10:53 Calm 10 Clear CLR 93 35     13%   89 29.9        
Jun 19 09:53 Calm 10 Clear CLR 90 35     14%   86 29.91        
Jun 19 08:53 SE 3 10 Clear CLR 87 35     16%   84 29.92 29.88      
Jun 19 07:53 NNE 6 10 Clear CLR 85 34     16%   82 29.91 29.87      
Jun 19 06:53 N 5 10 Clear CLR 79 41     26%   78 29.9 29.86      
Jun 19 05:53 N 6 10 Clear CLR 76 39     26%   74 29.89        
Jun 19 04:53 NNW 7 10 Clear CLR 77 39     26%   76 29.87        
Jun 19 03:53 NNW 7 10 Clear CLR 79 36     21%   78 29.86        
Jun 19 02:53 NNE 7 10 Clear CLR 81 37     21%   80 29.85        
Jun 19 01:53 NNW 5 10 Clear CLR 82 45     27%   80 29.86        
Jun 19 00:53 Calm 10 Clear CLR 85 43     23%   82 29.87        
Jun 18 23:53 WNW 6 10 Clear CLR 86 44     23%   83 29.86        
Jun 18 22:53 S 6 10 Clear CLR 91 37     15%   87 29.86 29.82      
Jun 18 21:53 NW 3 10 Clear CLR 93 41     16%   89 29.86        
Jun 18 20:53 Calm 10 Clear CLR 95 40     15%   91 29.84        
Jun 18 19:53 SW 5 10 Clear CLR 96 39     14%   92 29.82 29.78      
Jun 18 18:53 Calm 10 Clear CLR 97 39     14%   92 29.82        
Jun 18 17:53 WSW 3 10 Clear CLR 98 39     13%   93 29.82 29.78      
Jun 18 16:53 E 6 10 Clear CLR 99 39     13%   94 29.83 29.79      
Jun 18 15:53 5 10 Clear CLR 97 39     14%   92 29.85 29.82      
Jun 18 14:53 7 10 Clear CLR 98 39     13%   93 29.87 29.83      
Jun 18 14:43 ENE 5 10 Clear CLR 98 38     13%   93 29.88        
Jun 18 14:07 ESE 6 10 Thunderstorms CLR 97 39     14%   92 29.89        
Jun 18 13:53 SE 6 10 Clear CLR 97 39     14%   92 29.9        
Jun 18 12:53 7 10 Clear CLR 93 42     17%   89 29.91 29.87      
Jun 18 11:53 W 3 10 Clear CLR 91 41     18%   87 29.93        
Jun 18 10:53 SE 6 10 Clear CLR 89 43     20%   85 29.94        
Jun 18 09:53 E 5 10 Clear CLR 89 43     20%   85 29.94 29.9      
Jun 18 08:53 N 13 10 Clear CLR 87 44     22%   84 29.94 29.9      
Jun 18 07:53 NNW 15 10 Clear CLR 83 45     26%   81 29.93 29.89      
Jun 18 06:53 N 13 10 Clear CLR 78 44     30%   77 29.92 29.89      
Jun 18 05:53 NNW 9 10 Clear CLR 77 44     31%   76 29.9        
Jun 18 04:53 N 8 10 Clear CLR 78 44     30%   77 29.88        
Jun 18 03:53 N 13 10 Clear CLR 79 44     29%   78 29.87        
Jun 18 02:53 N 9 10 Clear CLR 81 44     27%   80 29.85 29.82      
Jun 18 01:53 NNW 10 10 Clear CLR 83 43     24%   81 29.85        
Jun 18 00:53 N 13 10 Clear CLR 84 44     25%   82 29.86        
Jun 17 23:53 N 10 10 Clear CLR 85 44     24%   82 29.86        
Jun 17 22:53 NNW 13 10 Clear CLR 87 44     22%   84 29.87 29.84      
Jun 17 21:53 E 15 10 Clear CLR 90 38     16%   86 29.85        
Jun 17 20:53 N 5 10 Clear CLR 92 31     11%   87 29.8        
Jun 17 19:53 NNE 3 10 Clear CLR 95 27     9%   89 29.78 29.75      
Jun 17 18:53 NE 5 10 Clear CLR 95 26     9%   89 29.77 29.73      
Jun 17 17:53 E 5 10 Clear CLR 96 27     9%   90 29.75        
Jun 17 16:53 E 6 10 Clear CLR 96 30     10%   90 29.76        
Jun 17 16:21 7 10 Clear CLR 96 31     10%   90 29.76        
Jun 17 15:53 3 10 Clear CLR 97 32     10%   91 29.77        
Jun 17 15:37 NE 9 10 Clear CLR 97 31     10%   91 29.78        
Jun 17 14:53 SSE 8 10 Clear CLR 96 31     10%   90 29.79        
Jun 17 13:53 S 10 10 Clear CLR 94 40     15%   90 29.81        
Jun 17 13:44 SSE 8 10 Clear CLR 94 40     15%   90 29.81        
Jun 17 13:22 ESE 9 10 Clear CLR 93 45     19%   89 29.82        
Jun 17 12:53 5 10 Clear CLR 91 46     21%   87 29.84        
Jun 17 11:53 NE 6 10 Clear CLR 90 46     22%   87 29.86        
Jun 17 10:53 5 10 Clear CLR 86 47     26%   83 29.87        
Jun 17 09:53 SE 3 10 Clear CLR 84 48     29%   82 29.88        
Jun 17 08:53 S 3 10 Clear CLR 81 48     32%   80 29.88 29.85      
Jun 17 07:53 SSW 5 10 Clear CLR 79 49     35%   78 29.87        
Jun 17 06:53 W 5 10 Clear CLR 77 49     37%   76 29.86 29.83      
Jun 17 05:53 NW 6 10 Clear CLR 76 49     39%   75 29.85 29.81      
Jun 17 04:53 S 5 10 Clear CLR 76 49     39%   75 29.83        
Jun 17 03:53 S 6 10 Clear CLR 77 49     37%   76 29.82 29.78      
Jun 17 02:53 S 7 10 Clear CLR 78 48     35%   77 29.82        
May 15 10:53 ESE 8   Clear CLR 79 35     20%   78 29.96 29.94      
May 15 06:53 N 11 10 Clear CLR 68 41     37%     29.92        
May 15 04:53   10 Clear CLR 69 41     36%     29.88 29.87      
May 14 19:53 SSE 11 10 Clear CLR 81 27     14%   79 29.8        
May 14 12:53 SSW 9 10 Clear CLR 81 32     17%   80 29.88        
May 13 12:53 SSE 11 10 Clear CLR 80 27     14%   78 29.85 29.85      
May 12 03:53   10 Mostly Cloudy BKN110 61 35     38%     29.73 29.72      
Jun 12 03:53   10 Clear CLR 60 28     29%     29.8        
Jun 11 12:53   10 Clear CLR 87 22     9%   83 29.64 29.61      
Jun 10 20:53 SW 14 10 Clear CLR 84 36     18%   81 29.61        
Jun 09 13:53   10 Clear CLR 94 36     13%   89 29.71 29.67      
Jun 09 12:53   10 Clear CLR 94 37     14%   89 29.73 29.69      
Jun 09 07:53 SSW 15 10 Clear CLR 82 34     18%   80 29.78 29.75      
Jun 09 01:53 S 8 10 Clear CLR 80 28     15%   78 29.76 29.72      
Jun 09 00:53 S 8 10 Clear CLR 82 26     13%   80 29.77 29.73      
Jun 07 15:53   10 Clear CLR 101        %     29.79 29.75      
Jun 06 00:53 NW 6 10 Clear CLR 83 25     12%   80 29.81 29.77      
Jun 05 19:53 WSW 10 10 Clear   96 18     6%   89 29.77 29.73